Miscellaneous Local Product
Issued by NWS Hastings, NE

Home | Current Version | Previous Version | Graphics & Text | Print | Product List | Glossary On
Versions: 1 2 3 4 5 6 7 8 9 10 11 12 13 14 15 16 17 18 19 20 21 22 23 24 25 26 27 28 29 30 31 32 33 34 35 36 37 38 39 40 41 42 43 44 45 46 47 48 49 50
615
AXUS43 KGID 251902
MISGRI

GID CWA HOURLY WEATHER ROUNDUP
NATIONAL WEATHER SERVICE HASTINGS NE
200 PM CDT SUN SEP 25 2016

NOTE: "FAIR" INDICATES FEW OR NO CLOUDS BELOW 12,000 FEET WITH NO
SIGNIFICANT WEATHER AND/OR OBSTRUCTIONS TO VISIBILITY.

...SOUTH CENTRAL NEBRASKA...

CITY           SKY/WX    TMP DP  RH WIND       PRES   REMARKS
GRAND ISLAND   MOSUNNY   69  41  36 NW20      30.22F
HASTINGS       MOSUNNY   69  42  37 NW24G30   30.24S
KEARNEY        SUNNY     72  36  26 NW20G28   30.24S
ORD            SUNNY     68  33  27 NW25G32   30.21S
YORK           SUNNY     70  45  40 NW22G31   30.19F
AURORA         MOSUNNY   69  43  38 NW18G28   30.21F
LEXINGTON      SUNNY     69  32  25 NW20G30   30.27F
HOLDREGE       SUNNY     69  33  25 NW20G29   30.26F
HEBRON         SUNNY     72  45  37 NW15G21   30.19F

...NEBRASKA PANHANDLE...

CITY           SKY/WX    TMP DP  RH WIND       PRES   REMARKS
CHADRON        SUNNY     63  28  26 NW22G33   30.36F
ALLIANCE       SUNNY     64  35  34 NW20G29   30.36S
SCOTTSBLUFF    PTSUNNY   62  36  37 NW14G21   30.39F
SIDNEY         LGT RAIN  64  35  34 NW18G33   30.39F

...WESTERN AND NORTH CENTRAL NEBRASKA...

CITY           SKY/WX    TMP DP  RH WIND       PRES   REMARKS
VALENTINE      SUNNY     65  28  24 NW28G37   30.25F
AINSWORTH      SUNNY     64  33  30 NW25G38   30.24S
ONEILL         SUNNY     68  31  24 NW26G33   30.19S
BROKEN BOW     SUNNY     68  30  24 NW22G36   30.25S
IMPERIAL       MOSUNNY   69  32  25 N20G31    30.33F
NORTH PLATTE   SUNNY     72  32  23 NW20G33   30.29F
MCCOOK         SUNNY     73  33  23 N23G31    30.28F

...EASTERN NEBRASKA...

CITY           SKY/WX    TMP DP  RH WIND       PRES   REMARKS
NORFOLK        CLOUDY    65  44  46 NW18G31   30.15S
SO SIOUX CITY  CLOUDY    65  49  56 NW20G30   30.10S
TEKAMAH        PTSUNNY   68  46  45 NW18G29   30.13R
COLUMBUS       CLOUDY    70  45  40 NW15G23   30.17S
ALBION         MOSUNNY   68  41  36 NW20G28   30.19R
OMAHA EPPLEY   PTSUNNY   70  49  47 NW18      30.11F
OFFUTT AFB     MOSUNNY   70  51  51 NW17      30.11F
MILLARD        PTSUNNY   71  50  47 W18G25    30.12S
LINCOLN        SUNNY     73  47  39 NW21G30   30.16S
NEBRASKA CITY  PTSUNNY   69  42  37 NW10      30.14S
BEATRICE       SUNNY     72  49  44 NW15G30   30.16F
FALLS CITY     CLOUDY    67  52  58 NW13      30.15R

...NORTHERN KANSAS...

CITY           SKY/WX    TMP DP  RH WIND       PRES   REMARKS
GOODLAND       SUNNY     70  35  27 NW18G28   30.34F
HILL CITY      SUNNY     73  41  31 N15G22    30.28F
NORTON         CLEAR     73  28  19 NW18G31   30.26F
PHILLIPSBURG   SUNNY     73  37  27 NW17G24   30.25F
SMITH CENTER   SUNNY     73  41  31 N18G25    30.24F
HAYS           SUNNY     73  43  33 N16       30.26F
CONCORDIA      MOSUNNY   72  48  42 NW15      30.20F
SALINA         PTSUNNY   72  52  49 N10       30.22S
TOPEKA         CLOUDY    66  55  67 NW5       30.17F



USA.gov is the U.S. government's official web portal to all federal, state and local government web resources and services.